www.pogodaiklimat.ru
ПОГОДА в Лехайтоне
Время
и дата
11:55 06.12
12:15 06.12
12:35 06.12
12:55 06.12
13:15 06.12
13:35 06.12
13:55 06.12
14:15 06.12
14:35 06.12
14:55 06.12
15:15 06.12
15:35 06.12
15:55 06.12
16:15 06.12
16:35 06.12
16:55 06.12
17:15 06.12
17:35 06.12
17:55 06.12
18:15 06.12
18:35 06.12
18:55 06.12
19:15 06.12
19:35 06.12
19:55 06.12
20:15 06.12
20:35 06.12
20:55 06.12
21:15 06.12
21:35 06.12
21:55 06.12
22:15 06.12
22:35 06.12
22:55 06.12
23:15 06.12
23:35 06.12
23:55 06.12
00:15 07.12
00:35 07.12
00:55 07.12
01:15 07.12
01:35 07.12
01:55 07.12
02:15 07.12
02:35 07.12
02:55 07.12
03:15 07.12
03:35 07.12
Ветер
(напр.,м/с)
Видим. Явления Облачность Т
(С)
Тd
(С)
f
(%)
Тe
(С)
Тes
(С)
Комфортность P
(гПа)
Po
(гПа)
Тmin
(С)
Tmax
(С)
R
(мм)
R24
(мм)
S
(см)
штиль 0 1 км дождь 10/10 150 m
[Ns]
+1.0 0.0 93 0 0 1005.4
штиль 0 1 км дождь 10/10 210 m
[Ns]
+2.0 0.0 87 +1 +1 1005.1
штиль 0 2 км слабый дождь 10/10 270 m
[Ns]
+2.0 +1.0 93 +1 +1 1004.8
штиль 0 1 км дождь 10/10 90 m
[Ns]
+2.0 +1.0 93 +1 +1 1004.4
штиль 0 2 км дождь 10/10 90 m
[Ns]
+3.0 +2.0 93 +2 +2 1004.4
штиль 0 2 км слабый дождь 10/10 90 m
[Ns]
+3.0 +2.0 93 +2 +2 1004.4
штиль 0 2 км слабый дождь 10/10 90 m
[Ns]
+3.0 +2.0 93 +2 +2 1004.4
штиль 0 1 км дождь 10/10 90 m
[Ns]
+3.0 +2.0 93 +2 +2 1004.1
штиль 0 2 км дождь 10/10 90 m
[Ns]
+5.0 +4.0 93 +4 +4 1004.1
штиль 0 2 км дождь 10/10 90 m
[Ns]
+5.0 +3.0 87 +4 +4 1004.1
штиль 0 2 км дымка 10/10 90 м +5.0 +4.0 93 +4 +4 1004.1
штиль 0 2 км дождь 10/10 210 m
[Ns]
+5.0 +4.0 93 +4 +4 1004.1
штиль 0 2 км слабый дождь 10/10 210 m
[Ns]
+5.0 +4.0 93 +4 +4 1004.1
штиль 0 1 км слабый дождь 10/10 150 m
[Ns]
+5.0 +4.0 93 +4 +4 1003.8
штиль 0 3 км слабая морось 10/10 150 m
[St]
+5.0 +4.0 93 +4 +4 1004.1
штиль 0 2 км морось 10/10 150 m
[St]
+5.0 +4.0 93 +4 +4 1003.8
штиль 0 3 км дождь 10/10 150 m
[Ns]
+5.0 +4.0 93 +4 +4 1003.8
штиль 0 2 км слабый дождь 10/10 60 m
[Ns]
+5.0 +4.0 93 +4 +4 1004.1
штиль 0 2 км дождь 10/10 120 m
[Ns]
+5.0 +4.0 93 +4 +4 1004.1
штиль 0 2 км дождь 10/10 60 m
[Ns]
+6.0 +5.0 93 +5 +5 1003.8
штиль 0 2 км дождь 10/10 180 m
[Ns]
+6.0 +5.0 93 +5 +5 1004.1
штиль 0 3 км дождь 10/10 120 m
[Ns]
+6.0 +5.0 93 +5 +5 1003.8
штиль 0 2 км неопределенные осадки 10/10 60 m
[Cb]
+6.0 +5.0 93 +5 +5 1003.8
штиль 0 3 км слабый дождь 10/10 60 m
[Ns]
+6.0 +5.0 93 +5 +5 1003.4
штиль 0 4 км дождь 10/10 60 m
[Ns]
+6.0 +5.0 93 +5 +5 1003.4
штиль 0 3 км слабый дождь 10/10 60 m
[Ns]
+7.0 +6.0 93 +6 +6 1003.4
штиль 0 6 км слабый дождь 10/10 270 m
[Ns]
+9.0 +8.0 93 +8 +8 1003.4
штиль 0 4 км слабый дождь 10/10 210 m
[Ns]
+8.0 +7.0 93 +7 +7 1003.4
штиль 0 3 км дождь 10/10 210 m
[Ns]
+7.0 +6.0 93 +6 +6 1003.4
штиль 0 3 км слабый дождь 10/10 210 m
[Ns]
+8.0 +7.0 93 +7 +7 1003.4
штиль 0 3 км морось 10/10 210 m
[St]
+8.0 +7.0 93 +7 +7 1003.1
штиль 0 3 км дождь 10/10 60 m
[Ns]
+8.0 +7.0 93 +7 +7 1003.4
штиль 0 3 км слабый дождь 10/10 60 m
[Ns]
+8.0 +7.0 93 +7 +7 1003.1
штиль 0 3 км слабая морось 10/10 300 m
[St]
+8.0 +7.0 93 +7 +7 1003.1
штиль 0 5 км дождь 10/10 240 m
[Ns]
+8.0 +8.0 100 +7 +7 1003.1
штиль 0 6 км морось 10/10 240 m
[St]
+10.0 +9.0 93 +9 +9 1003.1
штиль 0 11 км 10/10 240 м +10.0 +9.0 93 +9 +9 1003.1
штиль 0 8 км дождь 10/10 240 m
[Ns]
+10.0 +10.0 100 +9 +9 1002.8
штиль 0 11 км 10/10 240 м +11.0 +9.0 87 +10 +10 1002.8
штиль 0 5 км сильная морось 10/10 240 m
[St]
+11.0 +9.0 87 +10 +10 1002.8
штиль 0 4 км морось 10/10 240 m
[St]
+10.0 +9.0 93 +9 +9 1003.1
штиль 0 2 км слабая морось 10/10 240 m
[St]
+10.0 +8.0 87 +9 +9 1003.1
штиль 0 4 км дымка 10/10 240 м +10.0 +9.0 93 +9 +9 1003.1
штиль 0 2 км морось 10/10 240 m
[St]
+10.0 +8.0 87 +9 +9 1003.1
штиль 0 800 м туман 10/10 300 м +9.0 +8.0 93 +8 +8 1003.4
штиль 0 800 м туман 10/10 300 м +8.0 +8.0 100 +7 +7 1003.1
штиль 0 800 м туман 10/10 300 м +8.0 +8.0 100 +7 +7 1003.1
штиль 0 800 м туман 10/10 300 м +8.0 +7.0 93 +7 +7 1003.1
Местоположение метеостанции Jake Arner Memorial Airport: широта 40.8095 долгота -75.7615 высота над уровнем моря 159 м.
В архиве по умолчанию представлена погода в Лехайтоне за последние 1-2 суток. Обновление информации о фактической погоде в базе происходит ежечасно! Архивные данные за месяц целиком и за предыдущие месяцы Вы можете получить, выбрав интересующий диапазон дат из раскрывающегося списка и нажав кнопку "Ввод!".
Внимание! Архив погоды МЕТАР в базе сайта по станциям, не включенным в климатический монитор, хранится не более 60 дней. Нет смысла пытаться выбрать более раннюю дату.
*Определитесь, кто Вы:
Внимание! Время в таблицах - местное (без учета летнего времени). Для получения всемирного времени необходимо вычесть поправку, которая равна -5 ч.
Смотрите также архив погоды в соседних городах и на ближайших метеорологических станциях:
Партнеры нашего сайта:      
Пояснения к столбцам:
  • Ветер - указаны скорость ветра в м/с - средняя за 10 мин, порывы в срок и между сроками (в фигурных скобках) и направление, откуда дует ветер: С - северный,
  • СВ - северо-восточный, В - восточный, ЮВ - юго-восточный, Ю - южный, ЮЗ - юго-западный, З - западный, СЗ - северо-западный.
  • Видимость - горизонтальная дальность видимости в метрах или километрах. При видимости от 1 до 10 км при отсутствии осадков обычно наблюдается дымка, при ухудшении видимости до 1 км и менее - туман. В сухую погоду видимость может ухудшаться дымом, пылью или мглою.
  • Явления - указаны атмосферные явления, наблюдавшиеся в срок или в последний час перед сроком; фигурными скобками обозначены явления, наблюдавшиеся между сроками (за 1-3 часа до срока); квадратными скобками обозначены град или гололедные отложения с указанием их диаметра в мм.
  • Облачность - указаны через наклонную черту общая и нижняя облачность в баллах и высота нижней границы облаков в метрах; квадратными скобками обозначены формы облаков: Ci - перистые, Cs - перисто-слоистые, Cc - перисто-кучевые, Ac - высококучевые, As - высокослоистые, Sc - слоисто-кучевые, Ns - слоисто-дождевые, Cu - кучевые, Cb - кучево-дождевые. Подробнее классификацию облаков см. в Атласе облаков (PDF).
  • T - Температура воздуха - температура, измеренная на высоте 2 м над землей.
  • Td - Температура точки росы - температура, при понижении до которой содержащийся в воздухе водяной пар достигнет насыщения.
  • f - Относительная влажность воздуха - влажноcть воздуха, измеренная на высоте 2 м над землей.
  • Te - Эффективная температура - температура, которую ощущает одетый по сезону человек в тени. Характеристика душности погоды. При расчете учитывается влияние влажности воздуха и скорости ветра на теплоощущения человека.
  • Tes - Эффективная температура на солнце - температура, которую ощущает человек, с поправкой на солнечный нагрев. Характеристика знойности погоды. Зависит от высоты солнца над горизонтом, облачности и скорости ветра. Ночью, в пасмурную погоду, а также при ветре 12 м/с и более поправка равна нулю.
  • P - Атмосферное давление - приведенное к уровню моря атмосферное давление.
  • Po - Атмосферное давление - измеренное на уровне метеостанции атмосферное давление.
  • Tmin - Минимальная температура - минимум температуры воздуха на высоте 2 м над землей.
  • Tmax - Максимальная температура - максимум температуры воздуха на высоте 2 м над землей.
  • R - Количество осадков - Количество выпавших осадков за период времени, мм. При наведении курсора мыши на число - период времени, за который выпало указанное количество осадков.
  • R24 - Количество осадков - Количество выпавших осадков за 24 часа, мм.
  • S - Снежный покров - Высота снежного покрова, см. При наведении курсора мыши на число - состояние снежного покрова и степень покрытия местности в баллах.